When you browse on this site, cookies collect data to enhance your experience and personalize the content and advertising you see.
Visit our Privacy Policy to learn more. By continuing to use the site, you agree to this use of cookies and data.
  • In Lithuania
  • List of Countries
  • For 7 days
  • Water Temperature
  • Satellite Maps
  • Weather Map
  • Weather Widgets
  • user-avatar
    Login

    Hourly Weather Birmingham

    Today, 20 April, Saturday

    Time Temperature Precipitation Wind Pressure Humidity
    00:00 +9°C° 0 mm 2 mps 760 mmHg 82%
    01:00 +10°C° 0 mm 1 mps 760 mmHg 82%
    02:00 +9°C° 0 mm 1 mps 760 mmHg 81%
    03:00 +8°C° 0 mm 1 mps 760 mmHg 81%
    04:00 +8°C° 0 mm 1 mps 760 mmHg 80%
    05:00 +8°C° 0 mm 1 mps 760 mmHg 79%
    06:00 +8°C° 0 mm 1 mps 761 mmHg 78%
    07:00 +11°C° 0 mm 1 mps 761 mmHg 72%
    08:00 +13°C° 0 mm 1 mps 761 mmHg 66%
    09:00 +15°C° 0 mm 1 mps 761 mmHg 60%
    10:00 +16°C° 0 mm 2 mps 760 mmHg 56%
    11:00 +18°C° 0 mm 2 mps 760 mmHg 53%
    12:00 +20°C° 0 mm 2 mps 760 mmHg 49%
    13:00 +20°C° 0 mm 2 mps 760 mmHg 48%
    14:00 +21°C° 0 mm 2 mps 760 mmHg 48%
    15:00 +21°C° 0 mm 2 mps 759 mmHg 47%
    16:00 +20°C° 0 mm 2 mps 759 mmHg 52%
    17:00 +21°C° 0 mm 1 mps 759 mmHg 57%
    18:00 +20°C° 0 mm 1 mps 759 mmHg 62%
    19:00 +17°C° 0 mm 2 mps 759 mmHg 69%
    20:00 +16°C° 0 mm 2 mps 759 mmHg 75%
    21:00 +14°C° 0 mm 2 mps 759 mmHg 81%
    22:00 +13°C° 0 mm 2 mps 758 mmHg 83%
    23:00 +13°C° 0 mm 2 mps 758 mmHg 86%

    Tomorrow, 21 April, Sunday

    Time Temperature Precipitation Wind Pressure Humidity
    00:00 +12°C° 0 mm 2 mps 758 mmHg 88%
    01:00 +10°C° 0 mm 2 mps 757 mmHg 87%
    02:00 +11°C° 0 mm 1 mps 757 mmHg 87%
    03:00 +10°C° 0 mm 1 mps 756 mmHg 87%
    04:00 +10°C° 0 mm 1 mps 756 mmHg 85%
    05:00 +10°C° 0 mm 1 mps 755 mmHg 84%
    06:00 +10°C° 0 mm 1 mps 755 mmHg 82%
    07:00 +12°C° 0 mm 1 mps 755 mmHg 76%
    08:00 +14°C° 0 mm 1 mps 755 mmHg 70%
    09:00 +16°C° 0 mm 1 mps 754 mmHg 63%
    10:00 +17°C° 0 mm 2 mps 754 mmHg 60%
    11:00 +19°C° 0 mm 2 mps 753 mmHg 57%
    12:00 +20°C° 0 mm 2 mps 753 mmHg 54%
    13:00 +20°C° 0 mm 2 mps 752 mmHg 53%
    14:00 +20°C° 0 mm 2 mps 751 mmHg 52%
    15:00 +21°C° 0 mm 3 mps 751 mmHg 51%
    16:00 +20°C° 0 mm 2 mps 750 mmHg 55%
    17:00 +19°C° 0 mm 2 mps 750 mmHg 59%
    18:00 +18°C° 0 mm 2 mps 749 mmHg 64%
    19:00 +17°C° 0 mm 2 mps 749 mmHg 66%
    20:00 +15°C° 0 mm 2 mps 749 mmHg 68%
    21:00 +14°C° 0 mm 2 mps 749 mmHg 70%
    22:00 +13°C° 0 mm 2 mps 748 mmHg 73%
    23:00 +12°C° 0 mm 2 mps 748 mmHg 76%

    Day after tomorrow, 22 April, Monday

    Time Temperature Precipitation Wind Pressure Humidity
    00:00 +12°C° 0 mm 2 mps 747 mmHg 79%
    01:00 +10°C° 0 mm 2 mps 747 mmHg 81%
    02:00 +10°C° 0 mm 2 mps 746 mmHg 83%
    03:00 +9°C° 0 mm 2 mps 746 mmHg 86%
    04:00 +9°C° 0 mm 2 mps 745 mmHg 86%
    05:00 +9°C° 0 mm 2 mps 745 mmHg 86%
    06:00 +9°C° 0 mm 2 mps 744 mmHg 86%
    07:00 +11°C° 0 mm 3 mps 744 mmHg 81%
    08:00 +13°C° 0 mm 3 mps 743 mmHg 75%
    09:00 +16°C° 0 mm 3 mps 743 mmHg 69%
    10:00 +17°C° 0 mm 4 mps 743 mmHg 64%
    11:00 +19°C° 0 mm 4 mps 742 mmHg 59%
    12:00 +20°C° 0 mm 5 mps 742 mmHg 55%
    13:00 +20°C° 0 mm 5 mps 741 mmHg 55%
    14:00 +20°C° 0 mm 5 mps 740 mmHg 56%
    15:00 +21°C° 0 mm 5 mps 740 mmHg 56%
    16:00 +20°C° 0 mm 5 mps 739 mmHg 59%
    17:00 +19°C° 0 mm 5 mps 739 mmHg 62%
    18:00 +17°C° 0 mm 5 mps 739 mmHg 64%
    19:00 +15°C° 0 mm 4 mps 739 mmHg 67%
    20:00 +14°C° 0 mm 4 mps 739 mmHg 70%
    21:00 +13°C° 0 mm 4 mps 739 mmHg 73%
    22:00 +12°C° 0 mm 4 mps 738 mmHg 75%
    23:00 +11°C° 0 mm 3 mps 738 mmHg 78%

    23 April, Tuesday

    Time Temperature Precipitation Wind Pressure Humidity
    00:00 +10°C° 0 mm 3 mps 738 mmHg 81%
    01:00 +10°C° 0 mm 3 mps 737 mmHg 81%
    02:00 +10°C° 0 mm 3 mps 737 mmHg 80%
    03:00 +9°C° 0 mm 3 mps 737 mmHg 80%
    04:00 +10°C° 0 mm 3 mps 737 mmHg 81%
    05:00 +10°C° 0 mm 3 mps 737 mmHg 83%
    06:00 +10°C° 0 mm 3 mps 737 mmHg 84%
    07:00 +11°C° 0 mm 3 mps 737 mmHg 81%
    08:00 +13°C° 0 mm 4 mps 737 mmHg 77%
    09:00 +14°C° 0 mm 4 mps 737 mmHg 74%
    10:00 +15°C° 0 mm 5 mps 737 mmHg 70%
    11:00 +17°C° 0 mm 5 mps 737 mmHg 65%
    12:00 +19°C° 0 mm 5 mps 737 mmHg 60%
    13:00 +19°C° 0 mm 5 mps 737 mmHg 59%
    14:00 +19°C° 0 mm 5 mps 737 mmHg 58%
    15:00 +19°C° 0 mm 5 mps 737 mmHg 57%
    16:00 +17°C° 0 mm 5 mps 736 mmHg 61%
    17:00 +17°C° 0 mm 4 mps 736 mmHg 65%
    18:00 +15°C° 0 mm 4 mps 736 mmHg 69%
    19:00 +14°C° 0 mm 4 mps 736 mmHg 73%
    20:00 +12°C° 0 mm 4 mps 737 mmHg 78%
    21:00 +11°C° 0 mm 4 mps 737 mmHg 82%
    22:00 +10°C° 0 mm 3 mps 737 mmHg 85%
    23:00 +9°C° 0 mm 3 mps 736 mmHg 87%

    24 April, Wednesday

    Time Temperature Precipitation Wind Pressure Humidity
    00:00 +8°C° 0 mm 3 mps 736 mmHg 90%
    01:00 +8°C° 0 mm 3 mps 736 mmHg 91%
    02:00 +7°C° 0 mm 3 mps 736 mmHg 92%
    03:00 +7°C° 0 mm 3 mps 735 mmHg 93%
    04:00 +8°C° 0 mm 3 mps 735 mmHg 92%
    05:00 +8°C° 0 mm 3 mps 735 mmHg 92%
    06:00 +8°C° 0 mm 3 mps 735 mmHg 91%
    07:00 +10°C° 0.1 mm 4 mps 735 mmHg 89%
    08:00 +12°C° 0.1 mm 4 mps 735 mmHg 87%
    09:00 +13°C° 0.1 mm 5 mps 735 mmHg 85%
    10:00 +13°C° 0.1 mm 5 mps 736 mmHg 84%
    11:00 +13°C° 0.1 mm 5 mps 736 mmHg 83%
    12:00 +14°C° 0.1 mm 5 mps 736 mmHg 81%
    13:00 +14°C° 0.2 mm 5 mps 736 mmHg 78%
    14:00 +14°C° 0.2 mm 6 mps 737 mmHg 75%
    15:00 +14°C° 0.2 mm 6 mps 737 mmHg 71%
    16:00 +13°C° 0.1 mm 6 mps 737 mmHg 70%
    17:00 +13°C° 0.1 mm 6 mps 737 mmHg 69%
    18:00 +12°C° 0.1 mm 5 mps 737 mmHg 68%
    19:00 +10°C° 0 mm 5 mps 737 mmHg 71%
    20:00 +9°C° 0 mm 5 mps 738 mmHg 74%
    21:00 +8°C° 0 mm 4 mps 738 mmHg 77%
    22:00 +8°C° 0 mm 5 mps 738 mmHg 79%
    23:00 +8°C° 0 mm 5 mps 737 mmHg 81%

    25 April, Thursday

    Time Temperature Precipitation Wind Pressure Humidity
    00:00 +7°C° 0 mm 6 mps 737 mmHg 82%
    01:00 +7°C° 0 mm 6 mps 737 mmHg 83%
    02:00 +7°C° 0 mm 6 mps 737 mmHg 83%
    03:00 +7°C° 0 mm 5 mps 736 mmHg 84%
    04:00 +7°C° 0 mm 5 mps 736 mmHg 83%
    05:00 +7°C° 0 mm 5 mps 736 mmHg 82%
    06:00 +7°C° 0 mm 5 mps 736 mmHg 81%
    07:00 +8°C° 0.1 mm 6 mps 736 mmHg 77%
    08:00 +10°C° 0.1 mm 7 mps 737 mmHg 73%
    09:00 +11°C° 0.1 mm 8 mps 737 mmHg 69%
    10:00 +10°C° 0.6 mm 7 mps 737 mmHg 73%
    11:00 +8°C° 0.6 mm 6 mps 737 mmHg 78%
    12:00 +7°C° 0.6 mm 5 mps 738 mmHg 83%
    13:00 +9°C° 0.1 mm 5 mps 738 mmHg 75%
    14:00 +10°C° 0.1 mm 5 mps 739 mmHg 68%
    15:00 +13°C° 0.1 mm 5 mps 740 mmHg 60%
    16:00 +12°C° 0.1 mm 5 mps 740 mmHg 62%
    17:00 +10°C° 0.1 mm 5 mps 741 mmHg 64%
    18:00 +11°C° 0.1 mm 4 mps 742 mmHg 66%
    19:00 +9°C° 0 mm 5 mps 742 mmHg 69%
    20:00 +7°C° 0 mm 5 mps 743 mmHg 72%
    21:00 +6°C° 0 mm 5 mps 744 mmHg 75%
    22:00 +6°C° 0 mm 5 mps 745 mmHg 77%
    23:00 +5°C° 0 mm 4 mps 745 mmHg 79%
    Show more